Home > Weather > Lubango > Past weeks

Flag for Angola Past Weather in Lubango, Angola — Yesterday and Last 2 Weeks

Now
72 °F

Passing clouds.


Feels Like: 71 °F
Forecast: 52 / 80 °F
Wind: 2 mph from North

Location: Luanda Airport

Current Time: Aug 25, 2016 at 2:24:29 AM

Latest Report: Aug 25, 2016 at 2:00 AM


Visibility: N/A

Pressure: 29.95 "Hg (24.41 "Hg at 1765m altitude)

Humidity: 83%

Dew Point: 66 °F

Location of LubangoLocation

Past Weather in Lubango — Graph

°F

Lubango Temperature Yesterday

Maximum temperature yesterday: 77 °F (at 1:00 PM)
Minimum temperature yesterday: 70 °F (at 12:00 AM)
Average temperature yesterday: 72 °F

High & Low Weather Summary for the Past Weeks

 TemperatureHumidityPressure
High81 °F (Aug 15, 1:00 PM)100% (Aug 11, 6:00 AM)30.04 "Hg (Aug 11, 6:00 AM)
Low64 °F (Aug 11, 6:00 AM)54% (Aug 14, 2:00 PM)29.83 "Hg (Aug 14, 4:00 PM)
Average71 °F83%29.95 "Hg
* Reported Aug 10 12:00 AM — Aug 25 12:00 AM, Lubango, Weather by CustomWeather, © 2016

Note: Actual official high and low records may vary slightly from our data, if they occured in-between our weather recording intervals... More about our weather records

Advertising

Lubango Weather History for the Previous 24 Hours

Scroll right to see more
 ConditionsComfort  
Time TempWeatherWind HumidityBarometerVisibility
12:00 AM
Thu, Aug 25
70 °FPassing clouds.6 mph88%29.95 "HgN/A
11:00 PM
Wed, Aug 24
70 °FPassing clouds.5 mph94%29.98 "HgN/A
10:00 PM72 °FPassing clouds.5 mph88%29.95 "HgN/A
9:00 PM70 °FPassing clouds.2 mph94%29.95 "HgN/A
8:00 PM70 °FPassing clouds.5 mph94%29.92 "HgN/A
7:00 PM70 °FPassing clouds.7 mph94%29.89 "HgN/A
6:00 PM72 °FScattered clouds.9 mph88%29.86 "HgN/A
5:00 PM73 °FSunny.9 mph83%29.83 "Hg10 mi
4:30 PM73 °FSunny.6 mph83%29.83 "Hg10 mi
4:00 PM73 °FSunny.7 mph83%29.83 "Hg10 mi
3:00 PM73 °FScattered clouds.7 mph78%29.86 "HgN/A
2:00 PM77 °FPartly sunny.5 mph69%29.89 "HgN/A
1:00 PM77 °FBroken clouds.6 mph74%29.92 "HgN/A
12:00 PM75 °FBroken clouds.5 mph74%29.95 "HgN/A
11:00 AM75 °FBroken clouds.6 mph74%29.98 "HgN/A
10:00 AM73 °FBroken clouds.3 mph78%29.98 "HgN/A
9:00 AM72 °FBroken clouds.3 mph83%29.98 "HgN/A
8:00 AM72 °FPartly sunny.6 mph83%29.98 "HgN/A
7:00 AM70 °FPartly sunny.6 mph88%29.98 "Hg5 mi
6:00 AM70 °FPassing clouds.5 mph88%29.98 "Hg6 mi
5:00 AM70 °FPassing clouds.5 mph88%29.95 "Hg6 mi
3:00 AM70 °FPassing clouds.7 mph88%29.95 "Hg6 mi
2:00 AM70 °FPassing clouds.6 mph88%29.95 "HgN/A
Weather by CustomWeather, © 2016

See weather overviewHow to use our weather pages